Time,TemperatureF,DewpointF,PressureIn,WindDirection,WindDirectionDegrees,WindSpeedMPH,WindSpeedGustMPH,Humidity,HourlyPrecipIn,Conditions,Clouds,dailyrainin,SolarRadiationWatts/m^2,SoftwareType,DateUTC
2013-04-16 00:02:00,68.0,35.0,-100.00,NW,308,6.0,9.0,30,0.00,,,0.00,1.000000,,2013-04-16 07:02:00,
2013-04-16 00:32:00,66.0,34.0,-100.00,North,350,7.0,11.0,30,0.00,,,0.00,1.000000,,2013-04-16 07:32:00,
2013-04-16 00:42:00,66.0,34.0,-100.00,North,350,7.0,11.0,30,0.00,,,0.00,1.000000,,2013-04-16 07:42:00,
2013-04-16 00:53:00,66.0,34.0,-100.00,North,350,7.0,11.0,30,0.00,,,0.00,1.000000,,2013-04-16 07:53:00,
2013-04-16 01:02:00,66.0,34.0,-100.00,North,350,7.0,11.0,30,0.00,,,0.00,1.000000,,2013-04-16 08:02:00,
2013-04-16 01:32:00,69.0,36.0,-100.00,NW,326,9.0,15.0,30,0.00,,,0.00,1.000000,,2013-04-16 08:32:00,
2013-04-16 01:42:00,69.0,36.0,-100.00,NW,326,9.0,15.0,30,0.00,,,0.00,1.000000,,2013-04-16 08:42:00,
2013-04-16 01:52:00,69.0,36.0,-100.00,NW,326,9.0,15.0,30,0.00,,,0.00,1.000000,,2013-04-16 08:52:00,
2013-04-16 02:02:00,69.0,36.0,-100.00,NW,326,9.0,15.0,30,0.00,,,0.00,1.000000,,2013-04-16 09:02:00,
2013-04-16 02:33:00,67.0,37.0,-100.00,WNW,288,6.0,11.0,33,0.00,,,0.00,1.000000,,2013-04-16 09:33:00,
2013-04-16 02:43:00,67.0,37.0,-100.00,WNW,288,6.0,11.0,33,0.00,,,0.00,1.000000,,2013-04-16 09:43:00,
2013-04-16 02:53:00,67.0,37.0,-100.00,WNW,288,6.0,11.0,33,0.00,,,0.00,1.000000,,2013-04-16 09:53:00,
2013-04-16 03:03:00,67.0,37.0,-100.00,WNW,288,6.0,11.0,33,0.00,,,0.00,1.000000,,2013-04-16 10:03:00,
2013-04-16 03:33:00,65.0,37.0,-100.00,NW,316,6.0,11.0,35,0.00,,,0.00,1.000000,,2013-04-16 10:33:00,
2013-04-16 03:43:00,65.0,37.0,-100.00,NW,316,6.0,11.0,35,0.00,,,0.00,1.000000,,2013-04-16 10:43:00,
2013-04-16 03:53:00,65.0,37.0,-100.00,NW,316,6.0,11.0,35,0.00,,,0.00,1.000000,,2013-04-16 10:53:00,
2013-04-16 04:02:00,65.0,37.0,-100.00,NW,316,6.0,11.0,35,0.00,,,0.00,1.000000,,2013-04-16 11:02:00,
2013-04-16 04:32:00,64.0,32.0,-100.00,NNW,345,4.0,12.0,30,0.00,,,0.00,1.000000,,2013-04-16 11:32:00,
2013-04-16 04:42:00,64.0,32.0,-100.00,NNW,345,4.0,12.0,30,0.00,,,0.00,1.000000,,2013-04-16 11:42:00,
2013-04-16 04:52:00,64.0,32.0,-100.00,NNW,345,4.0,12.0,30,0.00,,,0.00,1.000000,,2013-04-16 11:52:00,
2013-04-16 05:02:00,64.0,32.0,-100.00,NNW,345,4.0,12.0,30,0.00,,,0.00,1.000000,,2013-04-16 12:02:00,
2013-04-16 05:32:00,62.0,29.0,-100.00,NNW,342,7.0,10.0,28,0.00,,,0.00,1.000000,,2013-04-16 12:32:00,
2013-04-16 05:42:00,62.0,29.0,-100.00,NNW,342,7.0,10.0,28,0.00,,,0.00,1.000000,,2013-04-16 12:42:00,
2013-04-16 05:52:00,62.0,29.0,-100.00,NNW,342,7.0,10.0,28,0.00,,,0.00,1.000000,,2013-04-16 12:52:00,
2013-04-16 06:02:00,62.0,29.0,-100.00,NNW,342,7.0,10.0,28,0.00,,,0.00,1.000000,,2013-04-16 13:02:00,
2013-04-16 06:32:00,63.0,21.0,-100.00,NW,319,5.0,12.0,20,0.00,,,0.00,3.000000,,2013-04-16 13:32:00,
2013-04-16 06:42:00,63.0,21.0,-100.00,NW,319,5.0,12.0,20,0.00,,,0.00,3.000000,,2013-04-16 13:42:00,
2013-04-16 06:52:00,63.0,21.0,-100.00,NW,319,5.0,12.0,20,0.00,,,0.00,3.000000,,2013-04-16 13:52:00,
2013-04-16 07:02:00,63.0,21.0,-100.00,NW,319,5.0,12.0,20,0.00,,,0.00,3.000000,,2013-04-16 14:02:00,
2013-04-16 07:32:00,68.0,27.0,-100.00,WNW,296,3.0,10.0,21,0.00,,,0.00,103.000000,,2013-04-16 14:32:00,
2013-04-16 07:42:00,68.0,27.0,-100.00,WNW,296,3.0,10.0,21,0.00,,,0.00,103.000000,,2013-04-16 14:42:00,
2013-04-16 07:52:00,68.0,27.0,-100.00,WNW,296,3.0,10.0,21,0.00,,,0.00,103.000000,,2013-04-16 14:52:00,
2013-04-16 08:02:00,68.0,27.0,-100.00,WNW,296,3.0,10.0,21,0.00,,,0.00,103.000000,,2013-04-16 15:02:00,
2013-04-16 08:33:00,70.0,27.0,-100.00,WSW,248,6.0,9.0,20,0.00,,,0.00,319.000000,,2013-04-16 15:33:00,
2013-04-16 08:43:00,70.0,27.0,-100.00,WSW,248,6.0,9.0,20,0.00,,,0.00,319.000000,,2013-04-16 15:43:00,
2013-04-16 08:53:00,70.0,27.0,-100.00,WSW,248,6.0,9.0,20,0.00,,,0.00,319.000000,,2013-04-16 15:53:00,
2013-04-16 09:03:00,70.0,27.0,-100.00,WSW,248,6.0,9.0,20,0.00,,,0.00,319.000000,,2013-04-16 16:03:00,
2013-04-16 09:33:00,74.0,29.0,-100.00,WSW,240,6.0,14.0,19,0.00,,,0.00,530.000000,,2013-04-16 16:33:00,
2013-04-16 09:42:00,74.0,29.0,-100.00,WSW,240,6.0,14.0,19,0.00,,,0.00,530.000000,,2013-04-16 16:42:00,
2013-04-16 09:52:00,74.0,29.0,-100.00,WSW,240,6.0,14.0,19,0.00,,,0.00,530.000000,,2013-04-16 16:52:00,
2013-04-16 10:02:00,74.0,29.0,-100.00,WSW,240,6.0,14.0,19,0.00,,,0.00,530.000000,,2013-04-16 17:02:00,
2013-04-16 10:33:00,76.0,28.0,-100.00,SSW,212,11.0,17.0,17,0.00,,,0.00,720.000000,,2013-04-16 17:33:00,
2013-04-16 10:43:00,76.0,28.0,-100.00,SSW,212,11.0,17.0,17,0.00,,,0.00,720.000000,,2013-04-16 17:43:00,
2013-04-16 10:53:00,76.0,28.0,-100.00,SSW,212,11.0,17.0,17,0.00,,,0.00,720.000000,,2013-04-16 17:53:00,
2013-04-16 11:02:00,76.0,28.0,-100.00,SSW,212,11.0,17.0,17,0.00,,,0.00,720.000000,,2013-04-16 18:02:00,
2013-04-16 11:32:00,79.0,27.0,-100.00,SW,229,10.0,18.0,15,0.00,,,0.00,865.000000,,2013-04-16 18:32:00,
2013-04-16 11:43:00,79.0,27.0,-100.00,SW,229,10.0,18.0,15,0.00,,,0.00,865.000000,,2013-04-16 18:43:00,
2013-04-16 11:52:00,79.0,27.0,-100.00,SW,229,10.0,18.0,15,0.00,,,0.00,865.000000,,2013-04-16 18:52:00,
2013-04-16 12:02:00,79.0,27.0,-100.00,SW,229,10.0,18.0,15,0.00,,,0.00,865.000000,,2013-04-16 19:02:00,
2013-04-16 12:32:00,81.0,26.0,-100.00,SW,229,12.0,22.0,13,0.00,,,0.00,951.000000,,2013-04-16 19:32:00,
2013-04-16 12:42:00,81.0,26.0,-100.00,SW,229,12.0,22.0,13,0.00,,,0.00,951.000000,,2013-04-16 19:42:00,
2013-04-16 12:52:00,81.0,26.0,-100.00,SW,229,12.0,22.0,13,0.00,,,0.00,951.000000,,2013-04-16 19:52:00,
2013-04-16 13:02:00,81.0,26.0,-100.00,SW,229,12.0,22.0,13,0.00,,,0.00,951.000000,,2013-04-16 20:02:00,
2013-04-16 13:32:00,83.0,25.0,-100.00,WSW,242,9.0,21.0,12,0.00,,,0.00,963.000000,,2013-04-16 20:32:00,
2013-04-16 13:42:00,83.0,25.0,-100.00,WSW,242,9.0,21.0,12,0.00,,,0.00,963.000000,,2013-04-16 20:42:00,
2013-04-16 13:52:00,83.0,25.0,-100.00,WSW,242,9.0,21.0,12,0.00,,,0.00,963.000000,,2013-04-16 20:52:00,
2013-04-16 14:02:00,83.0,25.0,-100.00,WSW,242,9.0,21.0,12,0.00,,,0.00,963.000000,,2013-04-16 21:02:00,
2013-04-16 14:33:00,85.0,22.0,-100.00,SW,235,10.0,22.0,10,0.00,,,0.00,925.000000,,2013-04-16 21:33:00,
2013-04-16 14:43:00,85.0,22.0,-100.00,SW,235,10.0,22.0,10,0.00,,,0.00,925.000000,,2013-04-16 21:43:00,
2013-04-16 14:53:00,85.0,22.0,-100.00,SW,235,10.0,22.0,10,0.00,,,0.00,925.000000,,2013-04-16 21:53:00,
2013-04-16 15:02:00,85.0,22.0,-100.00,SW,235,10.0,22.0,10,0.00,,,0.00,925.000000,,2013-04-16 22:02:00,
2013-04-16 15:33:00,85.0,27.0,-100.00,WSW,243,13.0,22.0,12,0.00,,,0.00,816.000000,,2013-04-16 22:33:00,
2013-04-16 15:43:00,85.0,27.0,-100.00,WSW,243,13.0,22.0,12,0.00,,,0.00,816.000000,,2013-04-16 22:43:00,
2013-04-16 15:52:00,85.0,27.0,-100.00,WSW,243,13.0,22.0,12,0.00,,,0.00,816.000000,,2013-04-16 22:52:00,
2013-04-16 16:02:00,85.0,27.0,-100.00,WSW,243,13.0,22.0,12,0.00,,,0.00,816.000000,,2013-04-16 23:02:00,
2013-04-16 16:32:00,84.0,24.0,-100.00,West,267,14.0,26.0,11,0.00,,,0.00,655.000000,,2013-04-16 23:32:00,
2013-04-16 16:43:00,84.0,24.0,-100.00,West,267,14.0,26.0,11,0.00,,,0.00,655.000000,,2013-04-16 23:43:00,
2013-04-16 16:52:00,84.0,24.0,-100.00,West,267,14.0,26.0,11,0.00,,,0.00,655.000000,,2013-04-16 23:52:00,
2013-04-16 17:02:00,84.0,24.0,-100.00,West,267,14.0,26.0,11,0.00,,,0.00,655.000000,,2013-04-17 00:02:00,
2013-04-16 17:32:00,82.0,24.0,-100.00,West,267,13.0,22.0,12,0.00,,,-99.99,450.000000,,2013-04-17 00:32:00,
2013-04-16 17:42:00,82.0,24.0,-100.00,West,267,13.0,22.0,12,0.00,,,-99.99,450.000000,,2013-04-17 00:42:00,
2013-04-16 17:52:00,82.0,24.0,-100.00,West,267,13.0,22.0,12,0.00,,,-99.99,450.000000,,2013-04-17 00:52:00,
2013-04-16 18:02:00,82.0,24.0,-100.00,West,267,13.0,22.0,12,0.00,,,-99.99,450.000000,,2013-04-17 01:02:00,
2013-04-16 18:32:00,80.0,27.0,-100.00,West,269,13.0,24.0,14,0.00,,,0.00,230.000000,,2013-04-17 01:32:00,
2013-04-16 18:42:00,80.0,27.0,-100.00,West,269,13.0,24.0,14,0.00,,,0.00,230.000000,,2013-04-17 01:42:00,
2013-04-16 18:52:00,80.0,27.0,-100.00,West,269,13.0,24.0,14,0.00,,,0.00,230.000000,,2013-04-17 01:52:00,
2013-04-16 19:02:00,80.0,27.0,-100.00,West,269,13.0,24.0,14,0.00,,,0.00,230.000000,,2013-04-17 02:02:00,
2013-04-16 19:32:00,75.0,27.0,-100.00,West,274,10.0,19.0,17,0.00,,,0.00,42.000000,,2013-04-17 02:32:00,
2013-04-16 19:42:00,75.0,27.0,-100.00,West,274,10.0,19.0,17,0.00,,,0.00,42.000000,,2013-04-17 02:42:00,
2013-04-16 19:52:00,75.0,27.0,-100.00,West,274,10.0,19.0,17,0.00,,,0.00,42.000000,,2013-04-17 02:52:00,
2013-04-16 20:02:00,75.0,27.0,-100.00,West,274,10.0,19.0,17,0.00,,,0.00,42.000000,,2013-04-17 03:02:00,
2013-04-16 20:33:00,73.0,33.0,-100.00,West,272,10.0,18.0,23,0.00,,,0.00,1.000000,,2013-04-17 03:33:00,
2013-04-16 20:42:00,73.0,33.0,-100.00,West,272,10.0,18.0,23,0.00,,,0.00,1.000000,,2013-04-17 03:42:00,
2013-04-16 20:53:00,73.0,33.0,-100.00,West,272,10.0,18.0,23,0.00,,,0.00,1.000000,,2013-04-17 03:53:00,
2013-04-16 21:03:00,73.0,33.0,-100.00,West,272,10.0,18.0,23,0.00,,,0.00,1.000000,,2013-04-17 04:03:00,
2013-04-16 21:33:00,70.0,33.0,-100.00,NW,311,7.0,17.0,25,0.00,,,0.00,1.000000,,2013-04-17 04:33:00,
2013-04-16 21:42:00,70.0,33.0,-100.00,NW,311,7.0,17.0,25,0.00,,,0.00,1.000000,,2013-04-17 04:42:00,
2013-04-16 21:52:00,70.0,33.0,-100.00,NW,311,7.0,17.0,25,0.00,,,0.00,1.000000,,2013-04-17 04:52:00,
2013-04-16 22:02:00,70.0,33.0,-100.00,NW,311,7.0,17.0,25,0.00,,,0.00,1.000000,,2013-04-17 05:02:00,
2013-04-16 22:32:00,68.0,32.0,-100.00,WNW,303,9.0,13.0,26,0.00,,,0.00,1.000000,,2013-04-17 05:32:00,
2013-04-16 22:43:00,68.0,32.0,-100.00,WNW,303,9.0,13.0,26,0.00,,,0.00,1.000000,,2013-04-17 05:43:00,
2013-04-16 22:52:00,68.0,32.0,-100.00,WNW,303,9.0,13.0,26,0.00,,,0.00,1.000000,,2013-04-17 05:52:00,
2013-04-16 23:02:00,68.0,32.0,-100.00,WNW,303,9.0,13.0,26,0.00,,,0.00,1.000000,,2013-04-17 06:02:00,
2013-04-16 23:32:00,66.0,34.0,-100.00,NW,306,8.0,18.0,31,0.00,,,0.00,1.000000,,2013-04-17 06:32:00,
2013-04-16 23:42:00,66.0,34.0,-100.00,NW,306,8.0,18.0,31,0.00,,,0.00,1.000000,,2013-04-17 06:42:00,
2013-04-16 23:52:00,66.0,34.0,-100.00,NW,306,8.0,18.0,31,0.00,,,0.00,1.000000,,2013-04-17 06:52:00,